Regional Weather Roundup
Issued by NWS

Home | Current Version | Previous Version | Text Only | Print | Product List | Glossary Off
Versions: 1 2 3 4 5 6 7 8 9 10 11 12 13 14 15 16 17 18 19 20 21 22 23 24 25 26 27 28 29 30 31 32 33 34 35 36 37 38 39 40 41 42 43 44 45 46 47 48 49 50

000
ASUS44 KMEG 270400
RWRTN
TENNESSEE HOURLY STATE WEATHER ROUNDUP
NATIONAL WEATHER SERVICE MEMPHIS TN
1100 PM CDT SUN APR 26 2015

TNZ002-004-019-021-049-052-054-088>092-270500-
WEST TENNESSEE

CITY           SKY/WX    TMP DP  RH WIND       PRES   REMARKS
MEMPHIS INTL   MOCLDY    56  48  74 NE8       29.90F
NWS MEMPHIS      N/A     54 N/A N/A MISG        N/A
JACKSON        CLEAR     46  44  93 SW3       29.92S
DYERSBURG      CLEAR     48  36  61 CALM      29.94S
UNION CITY     CLEAR     48  32  53 NE7       29.92F
PARIS          CLEAR     45  43  93 N3        29.93S
LEXINGTON      CLEAR     45  45 100 CALM      29.91F
SAVANNAH       CLEAR     46  32  57 CALM      29.91F
$$

TNZ008-025-027-028-033-062-065-066-270500-
NORTH MIDDLE TENNESSEE

CITY           SKY/WX    TMP DP  RH WIND       PRES   REMARKS
NASHVILLE      CLEAR     50  47  89 VRB6      29.91S
CLARKSVILLE    CLEAR     49  40  71 NW7       29.92S
COOKEVILLE     CLEAR     43  43 100 CALM      29.88S
CROSSVILLE     CLEAR     46  44  93 W5        29.88S FOG
$$

TNZ061-075-076-078-094-096-097-270500-
SOUTH MIDDLE TENNESSEE

CITY           SKY/WX    TMP DP  RH WIND       PRES   REMARKS
FAYETTEVILLE   CLEAR     46  45  93 N6        29.89F
TULLAHOMA      CLEAR     45  43  93 CALM      29.90S
WINCHESTER     CLEAR     46  45  93 CALM      29.90S
MCMINNVILLE    CLEAR     45  45 100 CALM      29.90R
COLUMBIA       CLEAR     45  32  61 CALM      29.90S
SHELBYVILLE    CLEAR     45  45 100 CALM      29.92R
$$

TNZ017-018-042-046-047-270500-
NORTHEAST TENNESSEE

CITY           SKY/WX    TMP DP  RH WIND       PRES   REMARKS
TRI CITIES     CLOUDY    51  41  68 CALM      29.84R
ELIZABETHTON   CLOUDY    48  43  81 CALM      29.83S
$$

TNZ012-013-036-069-073-074-270500-
CENTRAL EAST TENNESSEE

CITY           SKY/WX    TMP DP  RH WIND       PRES   REMARKS
KNOXVILLE      CLOUDY    54  47  77 W5        29.85R
OAK RIDGE      PTCLDY    50  46  86 CALM      29.87S
GATLINBURG     CLOUDY    52  48  87 CALM      29.85S
$$

TNZ083-085-099-270500-
SOUTHEAST TENNESSEE

CITY           SKY/WX    TMP DP  RH WIND       PRES   REMARKS
CHATTANOOGA    CLEAR     51  46  83 NW6       29.88R
$$

SKY/WX REPORTED AS FAIR MEANS FEW OR NO CLOUDS BELOW
12 THOUSAND FEET.




USA.gov is the U.S. government's official web portal to all federal, state and local government web resources and services.